Time,TemperatureF,DewpointF,PressureIn,WindDirection,WindDirectionDegrees,WindSpeedMPH,WindSpeedGustMPH,Humidity,HourlyPrecipIn,Conditions,Clouds,dailyrainin,SolarRadiationWatts/m^2,SoftwareType,DateUTC
2013-09-21 00:07:00,-999.0,-99.9,29.95,SSE,153,4.0,-999.0,-999,-99.99,,,0.00,0,weatherlink.com 1.10,2013-09-21 04:07:00,
2013-09-21 00:22:00,-999.0,-99.9,29.95,SSE,166,4.0,-999.0,-999,-99.99,,,0.00,0,weatherlink.com 1.10,2013-09-21 04:22:00,
2013-09-21 00:37:00,-999.0,-99.9,29.94,SSE,156,1.0,-999.0,-999,-99.99,,,0.00,0,weatherlink.com 1.10,2013-09-21 04:37:00,
2013-09-21 00:52:00,-999.0,-99.9,29.93,SE,146,4.0,-999.0,-999,-99.99,,,0.00,0,weatherlink.com 1.10,2013-09-21 04:52:00,
2013-09-21 01:07:00,-999.0,-99.9,29.93,SSW,199,1.0,-999.0,-999,-99.99,,,0.00,0,weatherlink.com 1.10,2013-09-21 05:07:00,
2013-09-21 01:22:00,-999.0,-99.9,29.95,South,180,4.0,-999.0,-999,-99.99,,,0.00,0,weatherlink.com 1.10,2013-09-21 05:22:00,
2013-09-21 01:37:00,-999.0,-99.9,29.94,NE,42,4.0,-999.0,-999,-99.99,,,0.00,0,weatherlink.com 1.10,2013-09-21 05:37:00,
2013-09-21 01:52:00,-999.0,-99.9,29.93,South,191,3.0,-999.0,-999,-99.99,,,0.00,0,weatherlink.com 1.10,2013-09-21 05:52:00,
2013-09-21 02:07:00,-999.0,-99.9,29.93,SSE,165,0.0,-999.0,-999,-99.99,,,0.00,0,weatherlink.com 1.10,2013-09-21 06:07:00,
2013-09-21 02:22:00,-999.0,-99.9,29.92,SSE,148,2.0,-999.0,-999,-99.99,,,0.00,0,weatherlink.com 1.10,2013-09-21 06:22:00,
2013-09-21 02:37:00,-999.0,-99.9,29.91,SSE,155,2.0,-999.0,-999,-99.99,,,0.00,0,weatherlink.com 1.10,2013-09-21 06:37:00,
2013-09-21 02:52:00,-999.0,-99.9,29.91,SE,136,0.0,-999.0,-999,-99.99,,,0.00,0,weatherlink.com 1.10,2013-09-21 06:52:00,
2013-09-21 03:07:00,-999.0,-99.9,29.91,South,173,0.0,-999.0,-999,-99.99,,,0.00,0,weatherlink.com 1.10,2013-09-21 07:07:00,
2013-09-21 03:22:00,-999.0,-99.9,29.90,SW,226,1.0,-999.0,-999,-99.99,,,0.00,0,weatherlink.com 1.10,2013-09-21 07:22:00,
2013-09-21 03:37:00,-999.0,-99.9,29.89,SW,217,2.0,-999.0,-999,-99.99,,,0.00,0,weatherlink.com 1.10,2013-09-21 07:37:00,
2013-09-21 03:52:00,-999.0,-99.9,29.89,SSE,168,6.0,-999.0,-999,-99.99,,,0.00,0,weatherlink.com 1.10,2013-09-21 07:52:00,
2013-09-21 04:07:00,-999.0,-99.9,29.89,SSE,167,0.0,-999.0,-999,-99.99,,,0.00,0,weatherlink.com 1.10,2013-09-21 08:07:00,
2013-09-21 04:22:00,-999.0,-99.9,29.89,SSE,156,0.0,-999.0,-999,-99.99,,,0.00,0,weatherlink.com 1.10,2013-09-21 08:22:00,
2013-09-21 04:52:00,-999.0,-99.9,29.88,SW,217,0.0,-999.0,-999,-99.99,,,0.00,0,weatherlink.com 1.10,2013-09-21 08:52:00,
2013-09-21 05:07:00,-999.0,-99.9,29.89,SSE,151,0.0,-999.0,-999,-99.99,,,0.00,0,weatherlink.com 1.10,2013-09-21 09:07:00,
2013-09-21 05:22:00,-999.0,-99.9,29.88,SSE,159,0.0,-999.0,-999,-99.99,,,0.00,0,weatherlink.com 1.10,2013-09-21 09:22:00,
2013-09-21 05:37:00,-999.0,-99.9,29.87,SSE,154,0.0,-999.0,-999,-99.99,,,0.00,0,weatherlink.com 1.10,2013-09-21 09:37:00,
2013-09-21 05:52:00,-999.0,-99.9,29.87,SSE,151,1.0,-999.0,-999,-99.99,,,0.00,0,weatherlink.com 1.10,2013-09-21 09:52:00,
2013-09-21 06:07:00,-999.0,-99.9,29.87,ESE,119,0.0,-999.0,-999,-99.99,,,0.00,0,weatherlink.com 1.10,2013-09-21 10:07:00,
2013-09-21 06:22:00,-90.0,-99.9,29.86,SE,142,4.0,-999.0,-999,-99.99,,,0.00,0,weatherlink.com 1.10,2013-09-21 10:22:00,
2013-09-21 06:37:00,-90.0,-99.9,29.87,South,185,2.0,-999.0,-999,-99.99,,,0.00,0,weatherlink.com 1.10,2013-09-21 10:37:00,
2013-09-21 06:52:00,-90.0,-99.9,29.86,South,184,6.0,-999.0,-999,-99.99,,,0.00,0,weatherlink.com 1.10,2013-09-21 10:52:00,
2013-09-21 07:07:00,-90.0,-99.9,29.85,SSE,147,0.0,-999.0,-999,-99.99,,,0.00,5,weatherlink.com 1.10,2013-09-21 11:07:00,
2013-09-21 07:22:00,-90.0,-99.9,29.85,SE,139,0.0,-999.0,-999,-99.99,,,0.00,7,weatherlink.com 1.10,2013-09-21 11:22:00,
2013-09-21 07:37:00,-90.0,-99.9,29.85,East,88,0.0,-999.0,-999,-99.99,,,0.00,25,weatherlink.com 1.10,2013-09-21 11:37:00,
2013-09-21 07:52:00,-90.0,-99.9,29.84,East,86,0.0,-999.0,-999,-99.99,,,0.00,54,weatherlink.com 1.10,2013-09-21 11:52:00,
2013-09-21 08:07:00,-90.0,-99.9,29.84,East,90,0.0,-999.0,-999,-99.99,,,0.00,91,weatherlink.com 1.10,2013-09-21 12:07:00,
2013-09-21 08:22:00,-90.0,-99.9,29.84,East,84,0.0,-999.0,-999,-99.99,,,0.00,77,weatherlink.com 1.10,2013-09-21 12:22:00,
2013-09-21 08:37:00,-90.0,-99.9,29.84,SE,140,0.0,-999.0,-999,-99.99,,,0.00,74,weatherlink.com 1.10,2013-09-21 12:37:00,
2013-09-21 08:52:00,-90.0,-99.9,29.83,SSE,155,0.0,-999.0,-999,-99.99,,,0.00,46,weatherlink.com 1.10,2013-09-21 12:52:00,
2013-09-21 09:07:00,-90.0,-99.9,29.83,WSW,246,1.0,-999.0,-999,-99.99,,,0.00,69,weatherlink.com 1.10,2013-09-21 13:07:00,
2013-09-21 09:22:00,-90.0,-99.9,29.83,SW,221,0.0,-999.0,-999,-99.99,,,0.00,25,weatherlink.com 1.10,2013-09-21 13:22:00,
2013-09-21 09:37:00,-90.0,-99.9,29.84,WSW,252,0.0,-999.0,-999,-99.99,,,0.00,7,weatherlink.com 1.10,2013-09-21 13:37:00,
2013-09-21 09:52:00,-90.0,-99.9,29.83,West,259,0.0,-999.0,-999,-99.99,,,0.00,9,weatherlink.com 1.10,2013-09-21 13:52:00,
2013-09-21 10:07:00,-90.0,-99.9,29.84,NW,313,0.0,-999.0,-999,-99.99,,,0.12,21,weatherlink.com 1.10,2013-09-21 14:07:00,
2013-09-21 10:22:00,-90.0,-99.9,29.84,NW,323,0.0,-999.0,-999,-99.99,,,0.20,21,weatherlink.com 1.10,2013-09-21 14:22:00,
2013-09-21 10:37:00,-90.0,-99.9,29.84,NW,323,0.0,-999.0,-999,-99.99,,,0.34,19,weatherlink.com 1.10,2013-09-21 14:37:00,
2013-09-21 10:52:00,-90.0,-99.9,29.84,NW,323,0.0,-999.0,-999,-99.99,,,0.34,37,weatherlink.com 1.10,2013-09-21 14:52:00,
2013-09-21 11:07:00,-90.0,-99.9,29.84,NW,323,0.0,-999.0,-999,-99.99,,,0.34,16,weatherlink.com 1.10,2013-09-21 15:07:00,
2013-09-21 11:22:00,-90.0,-99.9,29.84,NW,323,0.0,-999.0,-999,-99.99,,,0.34,18,weatherlink.com 1.10,2013-09-21 15:22:00,
2013-09-21 11:37:00,-90.0,-99.9,29.86,SSW,192,0.0,-999.0,-999,-99.99,,,0.40,11,weatherlink.com 1.10,2013-09-21 15:37:00,
2013-09-21 11:52:00,-90.0,-99.9,29.87,WSW,244,0.0,-999.0,-999,-99.99,,,0.50,14,weatherlink.com 1.10,2013-09-21 15:52:00,
2013-09-21 12:07:00,-90.0,-99.9,29.87,South,184,0.0,-999.0,-999,-99.99,,,0.52,37,weatherlink.com 1.10,2013-09-21 16:07:00,
2013-09-21 12:22:00,-90.0,-99.9,29.87,South,185,0.0,-999.0,-999,-99.99,,,0.52,33,weatherlink.com 1.10,2013-09-21 16:22:00,
2013-09-21 12:37:00,-90.0,-99.9,29.88,South,185,0.0,-999.0,-999,-99.99,,,0.54,16,weatherlink.com 1.10,2013-09-21 16:37:00,
2013-09-21 12:52:00,-90.0,-99.9,29.89,SSW,194,0.0,-999.0,-999,-99.99,,,0.59,49,weatherlink.com 1.10,2013-09-21 16:52:00,
2013-09-21 13:07:00,-90.0,-99.9,29.88,WSW,247,0.0,-999.0,-999,-99.99,,,0.62,53,weatherlink.com 1.10,2013-09-21 17:07:00,
2013-09-21 13:22:00,-90.0,-99.9,29.89,WSW,247,0.0,-999.0,-999,-99.99,,,0.64,51,weatherlink.com 1.10,2013-09-21 17:22:00,
2013-09-21 13:37:00,-90.0,-99.9,29.89,WSW,257,0.0,-999.0,-999,-99.99,,,0.66,65,weatherlink.com 1.10,2013-09-21 17:37:00,
2013-09-21 13:52:00,-90.0,-99.9,29.88,WSW,242,0.0,-999.0,-999,-99.99,,,0.68,70,weatherlink.com 1.10,2013-09-21 17:52:00,
2013-09-21 14:07:00,-90.0,-99.9,29.89,WSW,242,0.0,-999.0,-999,-99.99,,,0.70,65,weatherlink.com 1.10,2013-09-21 18:07:00,
2013-09-21 14:22:00,-90.0,-99.9,29.89,WSW,242,0.0,-999.0,-999,-99.99,,,0.73,25,weatherlink.com 1.10,2013-09-21 18:22:00,
2013-09-21 14:38:00,-90.0,-99.9,29.90,WSW,242,0.0,-999.0,-999,-99.99,,,0.76,60,weatherlink.com 1.10,2013-09-21 18:38:00,
2013-09-21 14:52:00,-90.0,-99.9,29.89,WSW,242,0.0,-999.0,-999,-99.99,,,0.78,63,weatherlink.com 1.10,2013-09-21 18:52:00,
2013-09-21 15:07:00,-90.0,-99.9,29.89,WSW,242,0.0,-999.0,-999,-99.99,,,0.80,72,weatherlink.com 1.10,2013-09-21 19:07:00,
2013-09-21 15:22:00,-90.0,-99.9,29.89,WSW,242,0.0,-999.0,-999,-99.99,,,0.81,46,weatherlink.com 1.10,2013-09-21 19:22:00,
2013-09-21 15:37:00,-90.0,-99.9,29.89,WSW,242,0.0,-999.0,-999,-99.99,,,0.82,53,weatherlink.com 1.10,2013-09-21 19:37:00,
2013-09-21 15:52:00,-90.0,-99.9,29.89,WSW,242,0.0,-999.0,-999,-99.99,,,0.83,44,weatherlink.com 1.10,2013-09-21 19:52:00,
2013-09-21 16:07:00,-90.0,-99.9,29.89,WSW,242,0.0,-999.0,-999,-99.99,,,0.85,44,weatherlink.com 1.10,2013-09-21 20:07:00,
2013-09-21 16:22:00,-90.0,-99.9,29.88,WSW,242,0.0,-999.0,-999,-99.99,,,0.86,40,weatherlink.com 1.10,2013-09-21 20:22:00,
2013-09-21 16:37:00,-90.0,-99.9,29.88,SW,220,0.0,-999.0,-999,-99.99,,,0.87,39,weatherlink.com 1.10,2013-09-21 20:37:00,
2013-09-21 16:52:00,-90.0,-99.9,29.89,South,171,0.0,-999.0,-999,-99.99,,,0.88,40,weatherlink.com 1.10,2013-09-21 20:52:00,
2013-09-21 17:07:00,-90.0,-99.9,29.88,SSW,206,0.0,-999.0,-999,-99.99,,,0.88,30,weatherlink.com 1.10,2013-09-21 21:07:00,
2013-09-21 17:22:00,-90.0,-99.9,29.88,SSW,206,0.0,-999.0,-999,-99.99,,,0.90,33,weatherlink.com 1.10,2013-09-21 21:22:00,
2013-09-21 17:38:00,-90.0,-99.9,29.88,SSW,206,0.0,-999.0,-999,-99.99,,,0.91,25,weatherlink.com 1.10,2013-09-21 21:38:00,
2013-09-21 17:52:00,-90.0,-99.9,29.88,SSW,201,0.0,-999.0,-999,-99.99,,,0.92,21,weatherlink.com 1.10,2013-09-21 21:52:00,
2013-09-21 18:07:00,-90.0,-99.9,29.87,South,189,0.0,-999.0,-999,-99.99,,,0.94,14,weatherlink.com 1.10,2013-09-21 22:07:00,
2013-09-21 18:22:00,-90.0,-99.9,29.86,SSE,159,0.0,-999.0,-999,-99.99,,,0.95,12,weatherlink.com 1.10,2013-09-21 22:22:00,
2013-09-21 18:37:00,-90.0,-99.9,29.86,SE,138,0.0,-999.0,-999,-99.99,,,0.96,7,weatherlink.com 1.10,2013-09-21 22:37:00,
2013-09-21 18:52:00,-88.9,-99.9,29.87,SE,138,2.0,-999.0,-999,-99.99,,,0.98,0,weatherlink.com 1.10,2013-09-21 22:52:00,
2013-09-21 19:07:00,-88.9,-99.9,29.87,SE,138,0.0,-999.0,-999,-99.99,,,0.99,0,weatherlink.com 1.10,2013-09-21 23:07:00,
2013-09-21 19:23:00,-88.9,-99.9,29.87,SE,138,0.0,-999.0,-999,-99.99,,,1.00,0,weatherlink.com 1.10,2013-09-21 23:23:00,
2013-09-21 19:38:00,-86.6,-99.9,29.87,SE,138,0.0,-999.0,-999,-99.99,,,1.00,0,weatherlink.com 1.10,2013-09-21 23:38:00,
2013-09-21 19:52:00,-86.6,-99.9,29.87,SE,138,0.0,-999.0,-999,-99.99,,,1.00,0,weatherlink.com 1.10,2013-09-21 23:52:00,
2013-09-21 20:08:00,-86.6,-99.9,29.87,SE,138,0.0,-999.0,-999,-99.99,,,1.00,0,weatherlink.com 1.10,2013-09-22 00:08:00,
2013-09-21 20:22:00,-86.6,-99.9,29.88,SE,138,0.0,-999.0,-999,-99.99,,,1.00,0,weatherlink.com 1.10,2013-09-22 00:22:00,
2013-09-21 20:37:00,-84.3,-99.9,29.87,SE,138,0.0,-999.0,-999,-99.99,,,1.00,0,weatherlink.com 1.10,2013-09-22 00:37:00,
2013-09-21 20:52:00,-84.3,-99.9,29.87,SE,138,0.0,-999.0,-999,-99.99,,,1.00,0,weatherlink.com 1.10,2013-09-22 00:52:00,
2013-09-21 21:07:00,-84.3,-99.9,29.88,SE,138,0.0,-999.0,-999,-99.99,,,1.00,0,weatherlink.com 1.10,2013-09-22 01:07:00,
2013-09-21 21:22:00,-84.3,-99.9,29.87,SE,138,0.0,-999.0,-999,-99.99,,,1.00,0,weatherlink.com 1.10,2013-09-22 01:22:00,
2013-09-21 21:37:00,-84.3,-99.9,29.88,SE,138,0.0,-999.0,-999,-99.99,,,1.00,0,weatherlink.com 1.10,2013-09-22 01:37:00,
2013-09-21 21:53:00,-84.3,-99.9,29.89,WSW,249,10.0,-999.0,-999,-99.99,,,1.00,0,weatherlink.com 1.10,2013-09-22 01:53:00,
2013-09-21 22:07:00,-84.3,-99.9,29.91,SW,236,6.0,-999.0,-999,-99.99,,,1.00,0,weatherlink.com 1.10,2013-09-22 02:07:00,
2013-09-21 22:23:00,-88.9,-99.9,29.92,West,279,0.0,-999.0,-999,-99.99,,,1.00,0,weatherlink.com 1.10,2013-09-22 02:23:00,
2013-09-21 22:37:00,-88.9,-99.9,29.93,WSW,258,0.0,-999.0,-999,-99.99,,,1.00,0,weatherlink.com 1.10,2013-09-22 02:37:00,
2013-09-21 22:52:00,-88.9,-99.9,29.94,WSW,240,2.0,-999.0,-999,-99.99,,,1.00,0,weatherlink.com 1.10,2013-09-22 02:52:00,
2013-09-21 23:07:00,-90.0,-99.9,29.94,WSW,254,0.0,-999.0,-999,-99.99,,,1.00,0,weatherlink.com 1.10,2013-09-22 03:07:00,
2013-09-21 23:23:00,-90.0,-99.9,29.95,WSW,244,1.0,-999.0,-999,-99.99,,,1.00,0,weatherlink.com 1.10,2013-09-22 03:23:00,
2013-09-21 23:37:00,-90.0,-99.9,29.95,WSW,241,0.0,-999.0,-999,-99.99,,,1.00,0,weatherlink.com 1.10,2013-09-22 03:37:00,
2013-09-21 23:52:00,-88.9,-99.9,29.95,West,268,0.0,-999.0,-999,-99.99,,,1.00,0,weatherlink.com 1.10,2013-09-22 03:52:00,